Home   Weather   Royan   Past weeks

Flag for France Past Weather in Royan, Poitou-Charentes, France — Yesterday and Last 2 Weeks

46 °F


Feels Like: 46 °F
Forecast: 48 / 65 °F
Wind: 2 mph from North

Location: Cognac Airport

Current Time: Oct 27, 2016 at 5:10:06 AM

Latest Report: Oct 27, 2016 at 4:30 AM

Visibility: 10 mi

Pressure: 30.45 "Hg

Humidity: 93%

Dew Point: 45 °F

Location of RoyanLocation

Past Weather in Royan — Graph


Royan Temperature Yesterday

Maximum temperature yesterday: 61 °F (at 4:30 PM)
Minimum temperature yesterday: 52 °F (at 11:00 PM)
Average temperature yesterday: 57 °F

High & Low Weather Summary for the Past Weeks

High70 °F (Oct 15, 4:00 PM)100% (Oct 13, 9:00 AM)30.45 "Hg (Oct 13, 9:00 AM)
Low34 °F (Oct 21, 8:00 AM)34% (Oct 12, 4:00 PM)29.56 "Hg (Oct 13, 3:30 PM)
Average55 °F80%29.99 "Hg
* Reported Oct 12 4:00 AM — Oct 27 4:00 AM, Royan, Weather by CustomWeather, © 2016

Note: Actual official high and low records may vary slightly from our data, if they occured in-between our weather recording intervals... More about our weather records


Royan Weather History for the Previous 24 Hours

Scroll right to see more
Time TempWeatherWind HumidityBarometerVisibility
4:00 AM
Thu, Oct 27
43 °FClear.No wind100%30.45 "Hg4 mi
3:30 AM45 °FClear.2 mph87%30.45 "Hg10 mi
3:00 AM46 °FClear.5 mph93%30.45 "Hg10 mi
2:30 AM48 °FClear.8 mph94%30.45 "Hg10 mi
2:00 AM48 °FClear.7 mph94%30.45 "Hg10 mi
1:30 AM48 °FClear.7 mph94%30.45 "Hg10 mi
1:00 AM48 °FClear.6 mph94%30.45 "Hg10 mi
12:30 AM50 °FClear.5 mph88%30.45 "Hg10 mi
12:00 AM52 °FClear.6 mph88%30.45 "Hg10 mi
11:30 PM
Wed, Oct 26
52 °FClear.5 mph88%30.45 "Hg10 mi
11:00 PM52 °FClear.7 mph88%30.42 "Hg10 mi
10:30 PM54 °FClear.9 mph82%30.42 "Hg10 mi
10:00 PM55 °FClear.10 mph82%30.42 "Hg10 mi
9:30 PM55 °FClear.9 mph82%30.42 "Hg10 mi
9:00 PM55 °FClear.7 mph88%30.39 "Hg10 mi
8:30 PM57 °FClear.8 mph82%30.39 "Hg10 mi
8:00 PM57 °FClear.6 mph82%30.39 "Hg10 mi
7:30 PM57 °FClear.5 mph82%30.39 "Hg10 mi
7:00 PM59 °FClear.3 mph82%30.36 "Hg10 mi
6:30 PM61 °FPassing clouds.5 mph77%30.36 "HgN/A
6:00 PM61 °FScattered clouds.7 mph77%30.36 "HgN/A
5:30 PM61 °FPartly sunny.7 mph77%30.36 "HgN/A
5:00 PM61 °FOvercast.8 mph77%30.36 "HgN/A
4:30 PM61 °FOvercast.9 mph77%30.36 "HgN/A
4:00 PM59 °FOvercast.9 mph82%30.36 "HgN/A
3:30 PM59 °FOvercast.9 mph82%30.33 "HgN/A
3:00 PM59 °FOvercast.12 mph82%30.33 "HgN/A
2:30 PM59 °FOvercast.10 mph82%30.36 "HgN/A
2:00 PM59 °FOvercast.9 mph88%30.36 "HgN/A
1:30 PM59 °FOvercast.7 mph88%30.36 "HgN/A
1:00 PM57 °FLow clouds.10 mph88%30.36 "HgN/A
12:30 PM57 °FLow clouds.8 mph94%30.36 "HgN/A
12:00 PM57 °FLow clouds.12 mph94%30.33 "HgN/A
11:30 AM57 °FLow clouds.13 mph94%30.33 "HgN/A
11:00 AM57 °FMostly cloudy.8 mph94%30.33 "HgN/A
10:30 AM57 °FLow clouds.13 mph94%30.33 "HgN/A
10:00 AM57 °FLow clouds.9 mph94%30.30 "HgN/A
9:30 AM57 °FLow clouds.9 mph94%30.30 "HgN/A
9:00 AM57 °FLow clouds.7 mph94%30.27 "Hg5 mi
8:30 AM55 °FLow clouds.8 mph100%30.27 "Hg4 mi
8:00 AM55 °FFog.9 mph100%30.27 "Hg3 mi
7:30 AM55 °FFog.8 mph100%30.24 "Hg3 mi
7:00 AM55 °FFog.9 mph100%30.24 "Hg3 mi
6:30 AM55 °FLow clouds.8 mph94%30.24 "Hg4 mi
6:00 AM55 °FPassing clouds.7 mph94%30.24 "Hg5 mi
5:30 AM55 °FClear.5 mph94%30.21 "Hg6 mi
5:00 AM55 °FClear.5 mph94%30.21 "Hg5 mi
Weather by CustomWeather, © 2016

See weather overviewHow to use our weather pages